Tracking 27086 objects as of 22-Mar-2023
HD Live streaming from Space Station
objects crossing your sky now

STARLINK-5437

Track STARLINK-5437 now!
10-day predictions
STARLINK-5437 is classified as:


NORAD ID: 54782
Int'l Code: 2022-175AA
Perigee: 356.0 km
Apogee: 357.7 km
Inclination: 53.2 °
Period: 91.5 minutes
Semi major axis: 6727 km
RCS: Unknown
Launch date: December 17, 2022
Source: United States (US)
Launch site: AIR FORCE EASTERN TEST RANGE (AFETR)
Your satellite tracking list
Your tracking list is empty




NASA's NSSDC Master Catalog

Two Line Element Set (TLE):
1 54782U 22175AA  23080.84002797  .00000670  00000-0  91884-5 0  9991
2 54782  53.2136 200.4701 0001231 128.6524 231.4606 15.73206807 16702
Source of the keplerian elements: AFSPC